Weather History for Caldwell, NJ

Change the Weather History Date:

Friday, August 2, 2013

  Actual Average Record
Temperature  
Mean Temperature 22 °C -  
Max Temperature 28 °C 29 °C 36 °C (1955)
Min Temperature 17 °C 16 °C 10 °C (1951)
Cooling Degree Days 7    
Growing Degree Days 22 (Base 50)    
Moisture  
Dew Point 17 °C    
Average Humidity 82    
Maximum Humidity 100    
Minimum Humidity 41    
Precipitation  
Precipitation 0.00 mm - - ()
Sea Level Pressure  
Sea Level Pressure 1011 hPa    
Wind  
Wind Speed 2 km/h (West)    
Max Wind Speed 13 km/h    
Max Gust Speed 26 km/h    
Visibility 8 kilometers    
Events Fog    
Averages and records for this station are not official NWS values.
T = Trace of Precipitation, MM = Missing Value Source: NWS Daily Summary

Daily Weather History Graph

Daily Weather History Graph

Search for Another Location

Airport:

Trip Planner

Search our weather history database for the weather conditions in past years. The results will help you decide how hot, cold, wet, or windy it might be!

Date:

Astronomy

Aug. 02, 2013 Rise Set
Actual Time 5:54 AM EDT 8:11 PM EDT
Civil Twilight 5:23 AM EDT 8:42 PM EDT
Nautical Twilight 4:45 AM EDT 9:19 PM EDT
Astronomical Twilight 4:04 AM EDT 10:01 PM EDT
Moon 2:13 AM EDT 5:07 PM EDT
Length of Visible Light 15h 18m
Length of Day
14h 16m
Waning Crescent, 16% of the Moon is Illuminated
Aug 2
Waning Crescent
Aug 6
New
Aug 14
First Quarter
Aug 20
Full
Aug 28
Last Quarter

Hourly Weather History & Observations

Time (EDT) Temp. Heat Index Dew Point Humidity Pressure Visibility Wind Dir Wind Speed Gust Speed Precip Events Conditions
12:20 AM 21.0 °C - 19.0 °C 88% 1010.7 hPa 6.4 km Calm Calm - N/A   Overcast
12:35 AM 21.0 °C - 19.0 °C 88% 1010.7 hPa 6.4 km Calm Calm - N/A   Overcast
12:53 AM 20.6 °C - 19.4 °C 93% 1011.2 hPa 6.4 km Calm Calm - N/A   Overcast
1:03 AM 21.0 °C - 19.0 °C 88% 1010.7 hPa 6.4 km Calm Calm - N/A   Overcast
1:53 AM 20.0 °C - 19.4 °C 96% 1010.4 hPa 4.8 km Calm Calm - N/A   Partly Cloudy
2:32 AM 19.0 °C - 19.0 °C 100% 1009.4 hPa 4.0 km Calm Calm - N/A   Partly Cloudy
2:53 AM 19.4 °C - 18.3 °C 93% 1009.9 hPa 4.0 km Calm Calm - N/A   Scattered Clouds
3:14 AM 19.0 °C - 19.0 °C 100% 1009.4 hPa 6.4 km Calm Calm - N/A   Partly Cloudy
3:26 AM 19.0 °C - 18.0 °C 94% 1009.4 hPa 2.8 km Calm Calm - N/A   Scattered Clouds
3:41 AM 19.0 °C - 18.0 °C 94% 1009.7 hPa 4.8 km SSW 7.4 km/h / 2.1 m/s - N/A   Partly Cloudy
3:53 AM 18.9 °C - 18.3 °C 96% 1010.1 hPa 4.8 km Calm Calm - N/A   Partly Cloudy
4:12 AM 19.0 °C - 18.0 °C 94% 1009.7 hPa 2.8 km Calm Calm - N/A   Partly Cloudy
4:16 AM 18.0 °C - 18.0 °C 100% 1009.7 hPa 1.2 km Calm Calm - N/A   Partly Cloudy
4:26 AM 18.0 °C - 18.0 °C 100% 1010.0 hPa 1.6 km Calm Calm - N/A   Mist
4:34 AM 18.0 °C - 18.0 °C 100% 1010.0 hPa 2.4 km Calm Calm - N/A   Partly Cloudy
4:40 AM 18.0 °C - 18.0 °C 100% 1010.0 hPa 1.2 km Calm Calm - N/A   Mist
4:53 AM 18.3 °C - 17.8 °C 97% 1010.7 hPa 1.2 km Calm Calm - N/A   Scattered Clouds
5:00 AM 18.0 °C - 17.0 °C 94% 1010.4 hPa 2.0 km Calm Calm - N/A   Scattered Clouds
5:09 AM 17.0 °C - 17.0 °C 100% 1010.4 hPa 1.2 km Calm Calm - N/A   Mist
5:18 AM 18.0 °C - 17.0 °C 94% 1010.4 hPa 1.6 km Calm Calm - N/A   Clear
5:26 AM 18.0 °C - 17.0 °C 94% 1010.7 hPa 4.8 km Calm Calm - N/A   Clear
5:33 AM 18.0 °C - 17.0 °C 94% 1010.7 hPa 2.4 km Calm Calm - N/A   Partly Cloudy
5:41 AM 17.0 °C - 17.0 °C 100% 1010.7 hPa 1.2 km Calm Calm - N/A   Mist
5:50 AM 17.0 °C - 17.0 °C 100% 1011.1 hPa 0.4 km Calm Calm - N/A Fog Fog
5:53 AM 17.2 °C - 16.7 °C 97% 1011.6 hPa 0.4 km Calm Calm - N/A Fog Fog
5:58 AM 17.0 °C - 17.0 °C 100% 1011.1 hPa 1.6 km Calm Calm - N/A   Mist
6:07 AM 17.0 °C - 16.0 °C 94% 1011.4 hPa 2.0 km Calm Calm - N/A   Scattered Clouds
6:11 AM 17.0 °C - 16.0 °C 94% 1011.4 hPa 1.2 km Calm Calm - N/A   Mist
6:20 AM 17.0 °C - 17.0 °C 100% 1011.4 hPa 2.0 km Calm Calm - N/A   Partly Cloudy
6:23 AM 17.0 °C - 17.0 °C 100% 1011.4 hPa 4.8 km Calm Calm - N/A   Clear
6:53 AM 17.2 °C - 16.7 °C 97% 1012.3 hPa 8.0 km Calm Calm - N/A   Clear
7:53 AM 19.4 °C - 17.2 °C 87% 1012.7 hPa 16.1 km Calm Calm - N/A   Clear
8:53 AM 21.1 °C - 16.7 °C 76% 1013.0 hPa 16.1 km Calm Calm - N/A   Clear
9:53 AM 23.3 °C - 17.2 °C 68% 1013.2 hPa 16.1 km West 5.6 km/h / 1.5 m/s - N/A   Clear
10:53 AM 25.0 °C - 15.6 °C 56% 1013.6 hPa 16.1 km NW 13.0 km/h / 3.6 m/s - N/A   Partly Cloudy
11:53 AM 26.1 °C - 15.6 °C 52% 1013.4 hPa 16.1 km WNW 11.1 km/h / 3.1 m/s - N/A   Mostly Cloudy
12:53 PM 26.7 °C 27.0 °C 14.4 °C 47% 1013.0 hPa 16.1 km Variable 9.3 km/h / 2.6 m/s - N/A   Clear
1:53 PM 27.2 °C 27.3 °C 14.4 °C 45% 1012.8 hPa 16.1 km Variable 9.3 km/h / 2.6 m/s - N/A   Scattered Clouds
2:53 PM 28.3 °C 28.2 °C 15.0 °C 44% 1012.6 hPa 16.1 km WSW 13.0 km/h / 3.6 m/s 25.9 km/h / 7.2 m/s N/A   Partly Cloudy
3:53 PM 28.3 °C 28.0 °C 13.9 °C 41% 1012.2 hPa 16.1 km West 13.0 km/h / 3.6 m/s - N/A   Clear
4:53 PM 27.8 °C 27.6 °C 13.3 °C 41% 1012.3 hPa 16.1 km Variable 9.3 km/h / 2.6 m/s - N/A   Clear
5:53 PM 27.8 °C 27.8 °C 15.0 °C 45% 1012.3 hPa 16.1 km Variable 7.4 km/h / 2.1 m/s - N/A   Clear
6:53 PM 26.1 °C - 15.6 °C 52% 1011.9 hPa 16.1 km Variable 5.6 km/h / 1.5 m/s - N/A   Partly Cloudy
7:53 PM 25.0 °C - 15.6 °C 56% 1012.4 hPa 16.1 km Calm Calm - N/A   Mostly Cloudy
8:53 PM 25.0 °C - 16.1 °C 58% 1012.7 hPa 16.1 km Variable 7.4 km/h / 2.1 m/s - N/A   Overcast
9:53 PM 23.3 °C - 16.1 °C 64% 1013.3 hPa 16.1 km Calm Calm - N/A   Clear
10:53 PM 22.2 °C - 16.1 °C 68% 1013.7 hPa 16.1 km Calm Calm - N/A   Mostly Cloudy
11:53 PM 21.7 °C - 15.6 °C 68% 1013.7 hPa 16.1 km Calm Calm - N/A   Clear